#timestamp,LO_Frequency,Hit,StdDev 
1675184415.8,286046998.4,N
1675184435.7,286047000.6,N
1675184455.5,286047001.9,N
1675184475.3,286047003.8,N
1675184495.2,286047003.7,N
1675184515.0,286047004.2,N
1675184515.9,286047004.2,N
1675184535.8,286047002.0,N
1675184555.6,286047002.6,N
1675184575.4,286047002.5,N
1675184595.3,286046999.7,N
1675184615.1,286046999.4,N
1675184635.8,286046996.7,N
1675184655.7,286047000.8,N
1675184675.5,286046998.1,N
1675184695.4,286046998.5,N
1675184715.2,286046999.0,N
1675184735.0,286046998.5,N
1675184735.9,286046998.5,N
1675184755.8,286046996.9,N
1675184775.6,286046997.1,N
1675184795.4,286046998.9,N
1675184815.3,286046998.6,N
1675184835.1,286046998.9,N
1675184855.9,286047001.2,N
1675184875.7,286046998.5,N
1675184895.5,286046998.3,N
1675184915.4,286046998.6,N
1675184935.2,286046998.2,N
1675184955.0,286046999.5,N
1675184955.9,286046999.5,N
1675184975.8,286046998.3,N
1675184995.6,286047000.7,N
1675185015.5,286046999.8,N
1675185035.3,286047002.1,N
1675185055.1,286047002.0,N
1675185075.9,286047000.5,N
1675185095.7,286046998.7,N
1675185115.6,286046994.9,Y
1675185135.4,286046998.7,P
1675185155.2,286046995.1,P
1675185175.1,286046996.5,N
1675185176.0,286046996.5,N
1675185195.8,286046996.5,N
1675185215.6,286047001.0,N
1675185235.5,286047001.1,N
1675185255.3,286047000.9,N
1675185275.2,286046998.8,N
1675185295.9,286047000.8,N
1675185315.7,286047000.7,N
1675185335.6,286046999.4,N
1675185355.4,286046999.5,N
1675185375.2,286046996.7,N
1675185395.1,286047001.0,N
1675185396.0,286047001.0,N
1675185415.8,286046999.6,N
1675185435.7,286046995.3,N
1675185455.5,286046997.2,N
1675185475.3,286046998.7,N
1675185495.2,286046998.1,N
1675185515.0,286046999.7,N
1675185515.9,286046999.7,N
1675185535.7,286047002.4,N
1675185555.6,286047004.0,N
1675185575.4,286046999.8,N
1675185595.3,286046999.3,N
1675185615.1,286046998.1,N
1675185616.0,286046998.1,N
1675185635.8,286046998.1,N
1675185655.7,286046999.4,N
1675185675.5,286047000.9,N
1675185695.3,286047000.0,N
1675185715.2,286046998.1,N
1675185735.0,286047002.1,N
1675185735.9,286047002.1,N
1675185755.8,286047000.5,N
1675185775.6,286047001.1,N
1675185795.4,286047001.2,N
1675185815.3,286046996.2,N
1675185835.1,286046994.8,N
1675185855.8,286046993.6,Y
1675185875.7,286046995.6,P
1675185895.5,286046994.6,N
1675185915.4,286046991.8,P
1675185935.2,286046997.6,N
1675185955.0,286046997.1,N
1675185955.9,286046997.1,N
1675185975.8,286046998.5,N
1675185995.6,286046999.0,N
1675186015.4,286046997.8,N
1675186035.3,286046998.7,N
1675186055.1,286047001.0,N
1675186075.9,286046998.5,N
1675186095.7,286046995.3,N
1675186115.5,286046996.8,N
1675186135.4,286046995.7,N
1675186155.2,286046995.4,N
1675186175.0,286046994.2,N
1675186175.9,286046994.2,N
1675186195.8,286046998.0,N
1675186215.6,286046994.9,N
1675186235.5,286046995.5,N
1675186255.3,286046995.6,N
1675186275.1,286046998.7,N
1675186295.9,286046996.9,N
1675186315.7,286046994.7,N
1675186335.5,286046994.2,N
1675186355.4,286046994.4,N
1675186375.2,286046993.7,Y
1675186395.1,286046998.5,P
1675186396.0,286046998.5,N
1675186415.8,286047002.4,N
1675186435.6,286047004.0,N
1675186455.5,286047002.2,N
1675186475.3,286047000.8,N
1675186495.1,286047000.6,N
1675186515.9,286047003.8,N
1675186535.7,286047000.8,N
1675186555.6,286046999.8,N
1675186575.4,286046999.8,N
1675186595.2,286047004.3,N
1675186615.1,286047000.2,N
1675186616.0,286047000.2,N
1675186635.8,286047000.4,N
1675186655.6,286047000.0,N
1675186675.5,286047002.5,N
1675186695.3,286047001.8,N
1675186715.2,286047002.0,N
1675186735.9,286047003.7,N
1675186755.7,286047003.5,N
1675186775.6,286047005.6,N
1675186795.4,286047004.4,N
1675186815.2,286047000.2,N
1675186835.1,286046998.4,N
1675186836.0,286046998.4,N
1675186855.8,286046999.5,N
1675186875.7,286046997.2,N
1675186895.5,286046999.4,N
1675186915.3,286047000.4,N
1675186935.2,286047000.5,N
1675186955.0,286046996.5,N
1675186955.9,286046996.5,N
1675187005.8,286046998.7,E
1675187015.7,286047001.2,N
1675187035.5,286046998.9,P
1675187055.4,286046998.6,N
1675187075.2,286046998.9,N
1675187095.1,286047001.9,N
1675187096.0,286047001.9,N
1675187115.8,286047006.5,Y
1675187135.6,286047007.5,P
1675187155.5,286047002.9,N
1675187175.3,286047003.5,N
1675187195.1,286047005.3,N
1675187215.9,286047002.3,N
1675187235.7,286047000.5,N
1675187255.6,286046996.6,N
1675187275.4,286046996.5,N
1675187295.2,286046997.1,N
1675187315.1,286046995.1,N
1675187316.0,286046995.1,N
1675187335.8,286046997.7,N
1675187355.6,286046997.9,N
1675187375.5,286046995.8,N
1675187395.3,286046994.9,N
1675187415.2,286047000.0,N
1675187435.9,286046999.7,N
1675187455.7,286046998.3,N
1675187475.6,286047003.9,N
1675187495.4,286047002.5,N
1675187515.2,286047001.8,N
1675187535.1,286047003.1,N
1675187536.0,286047003.1,N
1675187555.8,286047001.3,N
1675187575.7,286047001.1,N
1675187595.5,286047000.2,N
1675187615.3,286047006.0,N
1675187635.2,286047003.1,N
1675187655.0,286046999.9,N
1675187655.9,286046999.9,N
1675187675.7,286047002.1,N
1675187695.6,286047003.4,N
1675187715.4,286047006.9,N
1675187735.3,286047007.0,N
1675187755.1,286047005.2,N
1675187775.8,286047004.2,N
1675187795.7,286047002.3,N
1675187815.5,286047001.7,N
1675187835.4,286047002.3,N
1675187855.2,286047002.3,N
1675187875.0,286047000.0,N
1675187875.9,286047000.0,N
1675187895.8,286047002.0,N
1675187915.6,286047005.6,N
1675187935.4,286047006.8,N
1675187955.3,286047007.0,N
1675187975.1,286047004.8,N
1675187995.9,286047007.0,N
